Location: Arroyo de Valdeoliva
(40.1604°N, 4.9878°W)
Time: 11:54:42
(UTC+00:00)

ARIANE 6 FM1 Upper Stage - Pass Details

Date: 20 February 2026
Orbit: 523 x 607 km, 62.0° (Epoch: 8 March)

Event Time Altitude Azimuth Distance (km) Brightness Sun altitude
Rises 19:16:05 0° 318° (NW) 2,656 6.7 -15.0°
Reaches altitude 10° 19:18:20 10° 312° (NW) 1,767 5.9 -15.4°
Maximum altitude 19:22:06 45° 239° (WSW) 730 3.6 -16.1°
Drops below altitude 10° 19:25:55 10° 166° (SSE) 1,779 5.1 -16.8°
Enters shadow 19:27:37 - 161° (SSE) 2,453 5.7 -17.2°
